KAL1330 RKPC-RKSS

Flight info

Callsign KAL1330
Flight time 0h 51m
Altitude 23000
Route KAMIT1W KAMIT Y722 OLMEN OLMEN2T
Aircraft A339/H-SADE1E2E3GHIJ3J5M1P2RWXY/LB2D1

Departure

Time 2025-09-05 12:40
Airport Jeju International Airport (RKPC)

Arrival

Time 2025-09-05 13:32
Airport Gimpo International Airport (RKSS)
Time Latitude Longitude Altitude Speed Heading
2025-09-05 12:14 33.50719 126.49183 135 ft 0 kts 148°
2025-09-05 12:24 33.50722 126.49180 135 ft 2 kts 148°
2025-09-05 12:24 33.50744 126.49165 135 ft 2 kts 147°
2025-09-05 12:25 33.50763 126.49139 135 ft 2 kts 115°
2025-09-05 12:25 33.50770 126.49110 135 ft 2 kts 90°
2025-09-05 12:26 33.50762 126.49072 135 ft 0 kts 58°
2025-09-05 12:26 33.50760 126.49068 135 ft 0 kts 56°
2025-09-05 12:31 33.50763 126.49075 135 ft 2 kts 56°
2025-09-05 12:32 33.50845 126.49232 135 ft 13 kts 58°
2025-09-05 12:32 33.50897 126.49334 135 ft 15 kts 58°
2025-09-05 12:33 33.51005 126.49364 134 ft 9 kts 329°
2025-09-05 12:33 33.50996 126.49187 135 ft 12 kts 238°
2025-09-05 12:34 33.50884 126.48969 135 ft 17 kts 238°
2025-09-05 12:34 33.50745 126.48697 135 ft 20 kts 238°
2025-09-05 12:35 33.50600 126.48415 135 ft 19 kts 238°
2025-09-05 12:36 33.50388 126.48002 135 ft 19 kts 238°
2025-09-05 12:36 33.50319 126.47867 135 ft 19 kts 239°
2025-09-05 12:36 33.50182 126.47599 135 ft 18 kts 238°
2025-09-05 12:37 33.50045 126.47333 135 ft 18 kts 238°
2025-09-05 12:37 33.49910 126.47070 135 ft 18 kts 238°
2025-09-05 12:38 33.49911 126.46923 135 ft 11 kts 319°
2025-09-05 12:38 33.50038 126.46943 135 ft 10 kts 58°
2025-09-05 12:39 33.50493 126.47835 135 ft 124 kts 58°
2025-09-05 12:40 33.52150 126.50959 1012 ft 178 kts 58°
2025-09-05 12:40 33.53729 126.53096 2288 ft 176 kts 43°
2025-09-05 12:40 33.54995 126.54462 2833 ft 194 kts 43°
2025-09-05 12:41 33.57189 126.56834 3594 ft 230 kts 43°
2025-09-05 12:41 33.60267 126.58553 4339 ft 271 kts
2025-09-05 12:42 33.64131 126.59373 5619 ft 288 kts 10°
2025-09-05 12:42 33.67409 126.60222 6915 ft 290 kts 12°
2025-09-05 12:43 33.71374 126.61331 8212 ft 299 kts 11°
2025-09-05 12:44 33.77512 126.63178 10184 ft 307 kts 13°
2025-09-05 12:44 33.80366 126.64046 10651 ft 325 kts 11°
2025-09-05 12:44 33.84156 126.65113 11336 ft 343 kts 12°
2025-09-05 12:45 33.89697 126.66702 12592 ft 355 kts 12°
2025-09-05 12:46 33.96144 126.68580 14115 ft 363 kts 12°
2025-09-05 12:46 33.98623 126.69303 14700 ft 365 kts 12°
2025-09-05 12:46 34.03628 126.70771 15822 ft 371 kts 13°
2025-09-05 12:47 34.09534 126.72507 17073 ft 378 kts 13°
2025-09-05 12:48 34.17287 126.74787 18599 ft 387 kts 13°
2025-09-05 12:48 34.19931 126.75565 19097 ft 390 kts 13°
2025-09-05 12:49 34.27978 126.77454 20512 ft 398 kts
2025-09-05 12:49 34.30767 126.77771 20964 ft 401 kts
2025-09-05 12:50 34.39139 126.78638 22259 ft 408 kts
2025-09-05 12:50 34.41973 126.78937 22692 ft 410 kts
2025-09-05 12:50 34.47707 126.79547 22931 ft 411 kts
2025-09-05 12:51 34.56205 126.80454 22941 ft 410 kts
2025-09-05 12:51 34.59061 126.80759 22940 ft 410 kts
2025-09-05 12:52 34.63787 126.81265 22937 ft 410 kts
2025-09-05 12:53 34.72348 126.82182 22952 ft 411 kts
2025-09-05 12:53 34.75170 126.82485 22953 ft 410 kts
2025-09-05 12:53 34.80880 126.83099 22947 ft 411 kts
2025-09-05 12:54 34.86499 126.83702 22949 ft 412 kts
2025-09-05 12:54 34.91543 126.84243 22948 ft 412 kts
2025-09-05 12:55 34.96299 126.84756 22941 ft 411 kts
2025-09-05 12:55 35.02963 126.85474 22942 ft 411 kts
2025-09-05 12:56 35.07716 126.85986 22943 ft 411 kts
2025-09-05 12:56 35.14360 126.86706 22942 ft 412 kts
2025-09-05 12:57 35.21972 126.87537 22937 ft 412 kts
2025-09-05 12:58 35.27690 126.88158 22940 ft 413 kts
2025-09-05 12:58 35.33385 126.88776 22953 ft 412 kts
2025-09-05 12:58 35.37197 126.89191 22958 ft 413 kts
2025-09-05 12:59 35.48631 126.90437 22958 ft 412 kts
2025-09-05 13:00 35.50532 126.90644 22955 ft 412 kts
2025-09-05 13:00 35.57190 126.91375 22946 ft 411 kts
2025-09-05 13:00 35.60050 126.91688 22946 ft 411 kts
2025-09-05 13:01 35.65733 126.92312 22962 ft 411 kts
2025-09-05 13:02 35.74295 126.93251 22953 ft 410 kts
2025-09-05 13:02 35.79042 126.93772 22941 ft 411 kts
2025-09-05 13:02 35.81874 126.94083 22937 ft 411 kts
2025-09-05 13:03 35.87577 126.94710 22939 ft 410 kts
2025-09-05 13:04 35.97040 126.95759 22942 ft 409 kts
2025-09-05 13:04 36.01749 126.96280 22944 ft 409 kts
2025-09-05 13:05 36.07391 126.96905 22941 ft 409 kts
2025-09-05 13:05 36.13074 126.97536 22447 ft 408 kts
2025-09-05 13:06 36.19639 126.98266 21671 ft 402 kts
2025-09-05 13:06 36.25183 126.98882 20993 ft 397 kts
2025-09-05 13:06 36.26978 126.99081 20769 ft 395 kts
2025-09-05 13:07 36.32438 126.99687 20091 ft 390 kts
2025-09-05 13:08 36.41349 127.00304 18968 ft 380 kts 356°
2025-09-05 13:08 36.45712 127.00146 18407 ft 376 kts 356°
2025-09-05 13:09 36.50890 126.99942 17738 ft 372 kts 355°
2025-09-05 13:09 36.56882 126.99715 16971 ft 366 kts 355°
2025-09-05 13:10 36.61973 126.99531 16866 ft 368 kts 356°
2025-09-05 13:10 36.66244 126.99379 16896 ft 369 kts 355°
2025-09-05 13:11 36.71403 126.99223 16914 ft 370 kts 359°
2025-09-05 13:11 36.73932 126.99909 16916 ft 377 kts 21°
2025-09-05 13:12 36.80615 127.06939 16939 ft 382 kts 41°
2025-09-05 13:12 36.83852 127.10719 16938 ft 381 kts 41°
2025-09-05 13:12 36.86431 127.13705 16938 ft 381 kts 40°
2025-09-05 13:13 36.92158 127.18581 16508 ft 371 kts
2025-09-05 13:13 36.94672 127.18745 16307 ft 362 kts 356°
2025-09-05 13:14 37.02278 127.18678 15754 ft 364 kts 358°
2025-09-05 13:15 37.07311 127.18874 15275 ft 362 kts 359°
2025-09-05 13:15 37.10657 127.19055 14860 ft 360 kts 359°
2025-09-05 13:16 37.17287 127.19434 13977 ft 355 kts 360°
2025-09-05 13:16 37.22170 127.19717 13327 ft 352 kts
2025-09-05 13:17 37.27042 127.20005 12704 ft 348 kts
2025-09-05 13:17 37.32626 127.20332 12111 ft 338 kts 359°
2025-09-05 13:18 37.36136 127.18983 11992 ft 307 kts 314°
2025-09-05 13:18 37.37702 127.14329 11417 ft 293 kts 277°
2025-09-05 13:18 37.38176 127.10967 11024 ft 293 kts 278°
2025-09-05 13:19 37.38854 127.06805 10536 ft 292 kts 279°
2025-09-05 13:20 37.40180 126.99392 9701 ft 288 kts 280°
2025-09-05 13:20 37.41076 126.94520 9184 ft 284 kts 282°
2025-09-05 13:21 37.42410 126.89886 8926 ft 284 kts 291°
2025-09-05 13:21 37.43969 126.85462 8640 ft 274 kts 291°
2025-09-05 13:22 37.45750 126.80375 8033 ft 272 kts 288°
2025-09-05 13:22 37.47063 126.76792 7674 ft 272 kts 303°
2025-09-05 13:22 37.48240 126.74930 7350 ft 267 kts 307°
2025-09-05 13:23 37.50559 126.71411 6990 ft 257 kts 305°
2025-09-05 13:24 37.53797 126.66185 6520 ft 246 kts 304°
2025-09-05 13:24 37.56178 126.62251 6134 ft 240 kts 303°
2025-09-05 13:25 37.57848 126.59486 5822 ft 237 kts 303°
2025-09-05 13:25 37.60005 126.56480 5352 ft 234 kts 336°
2025-09-05 13:26 37.62932 126.57381 4730 ft 226 kts 49°
2025-09-05 13:26 37.64849 126.60361 4148 ft 213 kts 52°
2025-09-05 13:26 37.65813 126.61755 3792 ft 209 kts 49°
2025-09-05 13:27 37.67050 126.64768 3098 ft 189 kts 109°
2025-09-05 13:28 37.64265 126.68285 2133 ft 165 kts 142°
2025-09-05 13:28 37.62907 126.69916 1685 ft 160 kts 140°
2025-09-05 13:29 37.61379 126.71845 1194 ft 152 kts 138°
2025-09-05 13:29 37.59934 126.73703 845 ft 148 kts 137°
2025-09-05 13:30 37.58452 126.75523 508 ft 150 kts 136°
2025-09-05 13:30 37.57715 126.76450 271 ft 147 kts 137°
2025-09-05 13:30 37.56303 126.78213 58 ft 125 kts 134°
2025-09-05 13:31 37.55538 126.79189 65 ft 37 kts 128°
2025-09-05 13:32 37.55482 126.79703 69 ft 11 kts 56°
2025-09-05 13:32 37.55479 126.79874 72 ft 11 kts 115°
2025-09-05 13:33 37.55442 126.80122 70 ft 16 kts 65°
2025-09-05 13:33 37.55582 126.80304 71 ft 10 kts 21°
2025-09-05 13:34 37.55642 126.80280 73 ft 0 kts 323°
2025-09-05 13:34 37.55650 126.80271 73 ft 3 kts 317°
2025-09-05 13:35 37.55712 126.80260 74 ft 7 kts 39°